CW5443 Weather Reports


Display with metric or nautical units.
time (UTC)temp
F
wind
direction
speed
MPH
gust
MPH
rain 1hr
in
rain 24hr
in
rain mn
in
humidity
%
barometer
mb
20260504173201 63 262 3.0 11.0 0.00 0.00 0.00 38 1006.1
20260504172200 63 281 3.0 11.0 0.00 0.00 0.00 36 1006.4
20260504171159 63 289 2.0 11.0 0.00 0.00 0.00 37 1006.4
20260504170159 63 245 4.0 10.0 0.00 0.00 0.00 37 1006.4
20260504160124 63 285 3.0 11.0 0.00 0.00 0.00 35 1006.8
20260504151049 64 284 4.0 11.0 0.00 0.00 0.00 36 1006.8
20260504141044 62 251 4.0 10.0 0.00 0.00 0.00 38 1007.1
20260504110651 39 243 0.0 1.0 0.00 0.00 0.00 74 1009.1
20260504100502 38 242 0.0 0.0 0.00 0.00 0.00 73 1009.1
20260504081320 38 242 0.0 2.0 0.00 0.00 0.00 73 1009.1
20260504080319 38 242 1.0 2.0 0.00 0.00 0.00 73 1008.8
20260504070243 36 242 1.0 3.0 0.00 0.00 0.00 72 1009.1
20260504045026 33 243 0.0 0.0 0.00 0.00 0.00 68 1009.1
20260504044026 33 243 0.0 1.0 0.00 0.00 0.00 68 1009.1
20260504043025 34 243 0.0 1.0 0.00 0.00 0.00 68 1009.1
20260504042023 34 243 0.0 0.0 0.00 0.00 0.00 67 1009.1
20260504041023 34 243 0.0 1.0 0.00 0.00 0.00 67 1009.1
20260504040023 35 243 0.0 1.0 0.00 0.00 0.00 67 1009.1
20260504035022 35 243 0.0 1.0 0.00 0.00 0.00 67 1008.8
20260504034021 35 243 0.0 1.0 0.00 0.00 0.00 67 1008.8
20260504033020 36 243 0.0 1.0 0.00 0.00 0.00 67 1008.8
20260504031948 36 243 0.0 1.0 0.00 0.00 0.00 66 1008.8
20260504030948 36 243 0.0 1.0 0.00 0.00 0.00 66 1008.8
20260504025947 37 243 0.0 2.0 0.00 0.00 0.00 66 1008.8
20260504024946 37 243 0.0 2.0 0.00 0.00 0.00 66 1008.8
20260504023945 37 243 0.0 2.0 0.00 0.00 0.00 65 1008.8
20260504022913 38 243 0.0 2.0 0.00 0.01 0.00 65 1008.8
20260504021841 38 243 0.0 2.0 0.00 0.01 0.00 65 1008.8
20260504020841 39 243 0.0 0.0 0.00 0.01 0.00 64 1008.8
20260504015840 39 243 0.0 0.0 0.00 0.01 0.00 64 1008.8
20260504014839 40 243 0.0 1.0 0.00 0.02 0.00 63 1008.8
20260504013803 40 243 0.0 1.0 0.00 0.03 0.00 63 1008.8
20260504012802 41 243 0.0 2.0 0.00 0.06 0.00 62 1008.8
20260504011730 41 243 0.0 2.0 0.00 0.06 0.00 62 1008.5
20260504010729 42 243 0.0 2.0 0.00 0.06 0.00 60 1008.5
20260504005728 43 243 0.0 0.0 0.00 0.06 0.00 59 1008.5
20260504004727 43 243 0.0 0.0 0.00 0.06 0.00 58 1008.5
20260504003727 44 243 0.0 1.0 0.00 0.06 0.00 57 1008.1
20260504002726 44 243 0.0 2.0 0.00 0.06 0.00 57 1008.1
20260504001655 45 243 0.0 2.0 0.00 0.06 0.00 56 1008.1
20260504000654 46 243 0.0 2.0 0.00 0.06 0.00 54 1007.8
20260503235653 46 243 0.0 3.0 0.00 0.06 0.00 53 1007.8
20260503234652 46 243 1.0 3.0 0.00 0.06 0.00 51 1007.5
20260503233651 47 243 2.0 3.0 0.00 0.06 0.00 49 1007.5
20260503232651 48 243 2.0 4.0 0.00 0.06 0.00 46 1007.5
20260503231619 48 243 2.0 6.0 0.00 0.06 0.00 45 1007.5
20260503230618 49 246 3.0 7.0 0.00 0.06 0.00 42 1007.5
20260503225617 49 251 3.0 7.0 0.00 0.06 0.00 43 1007.1
20260503224545 50 246 2.0 8.0 0.00 0.06 0.00 42 1007.5
20260503223544 50 249 4.0 8.0 0.00 0.06 0.00 41 1007.1
20260503222543 51 246 2.0 7.0 0.00 0.06 0.00 40 1007.1
20260503221542 51 253 3.0 9.0 0.00 0.06 0.00 38 1007.1
20260503220541 51 259 4.0 9.0 0.00 0.06 0.00 40 1006.8
20260503215509 51 258 4.0 10.0 0.00 0.06 0.00 40 1006.8
20260503214508 52 259 4.0 10.0 0.00 0.06 0.00 38 1006.8
20260503213507 53 254 6.0 11.0 0.00 0.06 0.00 37 1006.8
20260503212506 51 276 3.0 12.0 0.00 0.06 0.00 38 1006.8
20260503211505 50 259 5.0 12.0 0.00 0.06 0.00 38 1006.8
20260503210504 51 259 4.0 8.0 0.00 0.06 0.00 38 1006.8
20260503205401 51 254 3.0 8.0 0.00 0.07 0.00 37 1006.8
20260503204401 52 258 4.0 8.0 0.00 0.10 0.00 38 1006.4
20260503203400 51 261 2.0 9.0 0.00 0.11 0.00 39 1006.4
20260503202359 52 264 6.0 9.0 0.00 0.13 0.00 38 1006.4
20260503201358 52 256 4.0 9.0 0.00 0.14 0.00 36 1006.4
20260503200358 53 258 5.0 12.0 0.00 0.14 0.00 37 1006.4
20260503195357 53 256 4.0 12.0 0.00 0.14 0.00 37 1006.1
20260503194325 51 247 4.0 12.0 0.00 0.14 0.00 42 1006.4
20260503193325 51 262 4.0 12.0 0.00 0.14 0.00 39 1006.4
20260503192324 51 248 5.0 9.0 0.00 0.14 0.00 38 1006.4
20260503191323 52 250 4.0 9.0 0.00 0.14 0.00 37 1006.4
20260503190251 52 252 4.0 10.0 0.00 0.14 0.00 39 1006.4
20260503185220 52 225 2.0 10.0 0.00 0.14 0.00 42 1006.4
20260503184219 51 202 4.0 10.0 0.00 0.14 0.00 41 1006.4
20260503183218 52 249 3.0 12.0 0.00 0.14 0.00 43 1006.4
20260503182146 53 247 4.0 12.0 0.00 0.14 0.00 41 1006.1
20260503181145 54 275 3.0 13.0 0.00 0.14 0.00 41 1006.1
20260503180145 54 242 4.0 13.0 0.00 0.14 0.00 43 1006.4
20260503175113 54 255 5.0 12.0 0.00 0.14 0.00 44 1006.1
20260503174112 52 282 3.0 8.0 0.00 0.14 0.00 46 1006.4